Terminal Aerodrome Forecast
Issued by NWS

Home | Current Version | Previous Version | Graphics & Text | Print | Product List | Glossary On
Versions: 1 2 3 4 5 6 7 8 9 10 11 12 13 14 15 16 17 18 19 20 21
000
FTUS43 KGRB 290742 AAB
TAFCWA
TAF AMD
KCWA 290742Z 2908/3006 04005KT P6SM VCSH SCT012 OVC035
     FM291200 VRB03KT P6SM OVC040
     FM291600 05007KT P6SM BKN060
     FM291700 05008KT P6SM SCT070
     FM292000 08007KT P6SM SCT080
     FM300000 11006KT P6SM SCT110
      AMD LTD TO CLD VIS AND WIND TIL 291100=

USA.gov is the U.S. government's official web portal to all federal, state and local government web resources and services.